Torna al catalogo

STARLINK-5891

AttivoComunicazioniSSO
NORAD 56351·PAYLOAD·🇺🇸 United States

Lanciato Apr 27, 2023 da Vandenberg Space Force Base

Loading…

Prossimi Passaggi (prossime 24 ore)

TLE

AggiornatoSource: CelesTrak SupGP

Epoca: Sep 14, 2026, 20:55 UTC

1 56351C 23058AL  26257.87201389  .00064469  00000+0  20018-2 0  2576
2 56351  97.2853 254.6856 0001556  86.9618 170.0263 15.33398614    10

Traccia STARLINK-5891 in tempo reale con AllMySat

Download on the App Store